Tiempo atmosférico en la estación meteorológica de Renteria, Gipuzkoa (165 m.)



Fecha
DESCASC
Temp. máxima en grados centígrados (hora)
DESCASC
Temp. mínima en grados centígrados (hora)
DESCASC
Temp. media en grados centígrados
DESCASC
Racha de viento máxima en m/sg (hora)
DESCASC
Velocidad máxima media en intervalos de 10 minutos(hora)
DESCASC
Precipitaciones diarias en mm
DESCASC
Precipitaciones de 00:00 a 06:00 en mm
DESCASC
Precipitaciones de 06:00 a 12:00 en mm
DESCASC
Precipitaciones de 12:00 a 18:00 en mm
DESCASC
Precipitaciones de 18:00 a 24:00 en mm
DESCASC
11-03-2020 22.5 (15:20) 4.4 (00:00) 13.5 5 (17:30) 3.33 (17:30) 0 0 0 0 0
21-03-2020 20.7 (15:10) 9.8 (00:00) 15.3 11.39 (11:10) 5.56 (12:00) 0 0 0 0 0
17-03-2020 14.2 (17:30) 9.4 (00:00) 11.8 2.5 (18:40) 1.39 (19:30) 0.4 0.4 0 0 0
18-03-2020 23.1 (15:00) 7.1 (00:00) 15.1 3.33 (22:20) 1.94 (22:00) 0 0 0 0 0
19-03-2020 23 (15:00) 10.6 (00:00) 16.8 11.39 (16:30) 5.28 (16:30) 0 0 0 0 0
20-03-2020 19.3 (15:50) 13.9 (00:00) 16.6 14.17 (04:50) 6.67 (14:30) 0 0 0 0 0
22-03-2020 17.7 (12:20) 6.6 (06:20) 12.2 6.67 (12:50) 4.72 (13:40) 0 0 0 0 0
14-03-2020 14.2 (11:30) 4.8 (00:00) 9.5 5 (12:00) 3.06 (14:20) 0 0 0 0 0
13-03-2020 12.7 (11:20) 8 (23:59) 10.3 5.83 (14:00) 3.61 (13:10) 0 0 0 0 0
24-03-2020 19.2 (12:10) 8.4 (00:00) 13.8 7.5 (15:10) 3.89 (14:40) 0 0 0 0 0
10-03-2020 16.7 (14:10) 5 (00:00) 10.9 5 (16:40) 2.78 (16:30) 0 0 0 0 0
25-03-2020 18.1 (13:00) 4.5 (00:00) 11.3 6.67 (13:00) 2.5 (16:00) 0 0 0 0 0
26-03-2020 12.8 (13:50) 3.5 (00:00) 8.2 11.67 (08:10) 5.56 (11:30) 0.2 0.2 0 0 0
07-03-2020 11.2 (11:50) 6.6 (00:00) 8.9 9.44 (01:50) 4.17 (09:50) 21 4.6 2 14.4 0
27-03-2020 14.9 (14:10) -0.2 (00:00) 7.3 6.94 (16:50) 3.61 (16:50) 0 0 0 0 0
28-03-2020 17.4 (12:50) 1.4 (00:00) 9.4 6.11 (13:50) 3.33 (14:20) 0 0 0 0 0
04-03-2020 16.9 (15:50) 8.4 (00:00) 12.6 5.28 (12:00) 3.06 (12:30) 9.2 2.4 6.6 0.2 0
31-03-2020 9.1 (17:00) 0.8 (00:00) 5 3.61 (00:10) 1.67 (00:10) 4 0.2 2 1.4 0.4
29-03-2020 13.3 (14:10) 2.4 (00:00) 7.9 8.61 (22:00) 4.44 (23:00) 0.8 0 0 0.4 0.4
12-03-2020 14.1 (14:40) 9.4 (00:00) 11.8 6.11 (22:00) 3.61 (22:10) 0.6 0 0.2 0 0.4
09-03-2020 11.4 (15:00) 8.3 (00:00) 9.8 11.39 (12:20) 3.89 (00:30) 20.8 8.8 8.8 2.8 0.4
30-03-2020 7.9 (16:10) 0.3 (00:00) 4.1 10 (00:10) 4.44 (00:10) 11.6 0.6 10 0.4 0.6
08-03-2020 15.4 (14:00) 2.6 (00:00) 9 6.67 (15:50) 2.78 (15:20) 1.2 0 0 0 1.2
23-03-2020 17.2 (14:20) 8.4 (00:00) 12.8 6.39 (14:30) 3.06 (13:40) 2.4 0 0 0 2.4
03-03-2020 16.1 (12:10) 6.1 (00:00) 11.1 17.22 (16:40) 7.78 (11:30) 9.2 0.2 4 1.6 3.4
16-03-2020 10.6 (15:50) 7.9 (00:00) 9.3 6.39 (05:50) 2.78 (01:10) 50.8 25.8 17.6 3.4 4
06-03-2020 10 (14:10) 4.6 (00:00) 7.3 16.67 (17:20) 7.22 (17:20) 26.8 0.6 17.2 5 4
02-03-2020 15.2 (04:50) 5.6 (00:00) 10.4 18.89 (03:50) 10.56 (03:20) 28.6 12.8 5.4 5.8 4.6
05-03-2020 17.8 (05:00) 7.4 (00:00) 12.6 27.22 (04:50) 15.83 (06:10) 24 0 14 1.8 8.2
15-03-2020 22.5 (13:20) 3.2 (00:00) 12.9 13.89 (10:20) 7.5 (06:30) 22 0 0 0 22

Gráficas

Temp. máximas Temp. mínimas Temp. medias Precipitaciones Rachas de viento máximas Velocidades máximas media en intervalos de 10 minutos

Datos horarios

Fecha y hora oficial Temperatura (ºC) Velocidad del viento (km/h) Dirección del viento Racha (km/h) Dirección de racha Precipitación (mm) Presión (hPa) Tendencia (hPa) Humedad (%)
2020-03-31 23:00:00 7.1 2 Norte 9 Este 0 -- -- 100
2020-03-31 22:00:00 7.2 0 Calma 5 Sudoeste 0 -- -- 100
2020-03-31 21:00:00 7.5 3 Sur 4 Sudoeste 0 -- -- 99
2020-03-31 20:00:00 8.1 0 Calma 6 Sudoeste 0.2 -- -- 97
2020-03-31 19:00:00 8.5 0 Calma 5 Oeste 0.2 -- -- 94
2020-03-31 18:00:00 9 3 Sudoeste 4 Sudoeste 0.2 -- -- 93
2020-03-31 17:00:00 9.1 2 Sudoeste 4 Sudoeste 0 -- -- 94
2020-03-31 16:00:00 8.2 0 Calma 5 Nordeste 0.4 -- -- 94
2020-03-31 15:00:00 7.2 0 Calma 5 Noroeste 0.2 -- -- 91
2020-03-31 14:00:00 6.9 0 Calma 4 Sudoeste 0.2 -- -- 97
2020-03-31 13:00:00 6 0 Calma 4 Sur 0.4 -- -- 100
2020-03-31 12:00:00 4.2 2 Sur 6 Sudoeste 0.6 -- -- 100
2020-03-31 11:00:00 3.6 0 Calma 4 Sur 0.2 -- -- 100
2020-03-31 10:00:00 2.7 0 Calma 4 Sudeste 0 -- -- 100
2020-03-31 09:00:00 2.1 0 Calma 4 Sur 0.2 -- -- 100
2020-03-31 08:00:00 1.8 0 Calma 5 Sudoeste 0.6 -- -- 100
2020-03-31 07:00:00 1.7 3 Sur 5 Sudoeste 0.4 -- -- 100
2020-03-31 06:00:00 1.4 0 Calma 9 Sur 0.2 -- -- 100
2020-03-31 05:00:00 1.1 2 Sudoeste 4 Sur 0 -- -- 100
2020-03-31 04:00:00 0.9 0 Calma 7 Sudeste 0 -- -- 100
2020-03-31 03:00:00 0.8 4 Sudeste 8 Sudeste 0 -- -- 100
2020-03-31 02:00:00 1 0 Calma 8 Este 0 -- -- 98
2020-03-31 01:00:00 1.7 2 Sudoeste 13 Este 0 -- -- 98
2020-03-31 00:00:00 2.3 6 Este 12 Este 0 -- -- 98
2020-03-30 23:00:00 2.4 0 Calma 8 Sudeste 0 -- -- 98
2020-03-30 22:00:00 2.7 3 Este 10 Nordeste 0 -- -- 97
2020-03-30 21:00:00 3.2 3 Este 11 Sudoeste 0.4 -- -- 94
2020-03-30 20:00:00 4.4 5 Sudoeste 15 Sudoeste 0.2 -- -- 88
2020-03-30 19:00:00 6 0 Calma 9 Sudoeste 0 -- -- 80
2020-03-30 18:00:00 6.4 0 Calma 15 Norte 0 -- -- 84
2020-03-30 17:00:00 7 2 Norte 13 Sudoeste 0 -- -- 76
2020-03-30 16:00:00 7.8 4 Sudeste 7 Sur 0 -- -- 82
2020-03-30 15:00:00 6.1 2 Nordeste 6 Nordeste 0.2 -- -- 90
2020-03-30 14:00:00 4.4 2 Sur 8 Sur 0.2 -- -- 94
2020-03-30 13:00:00 4.3 3 Sur 8 Sudoeste 0 -- -- 90
2020-03-30 12:00:00 3.9 2 Sudeste 5 Nordeste 0 -- -- 98
2020-03-30 11:00:00 1.3 2 Sudoeste 5 Sur 0.6 -- -- 100
2020-03-30 10:00:00 0.4 0 Calma 0 Calma 4.2 -- -- 99
2020-03-30 09:00:00 0.6 0 Calma 8 Oeste 1.8 -- -- 98
2020-03-30 08:00:00 1.2 3 Sudoeste 8 Sudoeste 1.6 -- -- 97
2020-03-30 07:00:00 2.2 4 Sudoeste 8 Sur 1.8 -- -- 97
2020-03-30 06:00:00 3.2 3 Sudoeste 5 Sudoeste 0 -- -- 99
2020-03-30 05:00:00 3.2 2 Sur 4 Sur 0 -- -- 98
2020-03-30 04:00:00 3.4 0 Calma 5 Sudoeste 0 -- -- 96
2020-03-30 03:00:00 3.4 3 Sudoeste 24 Noroeste 0.2 -- -- 93
2020-03-30 02:00:00 3.6 13 Noroeste 27 Noroeste 0.2 -- -- 90
2020-03-30 01:00:00 3.9 8 Noroeste 36 Norte 0.2 -- -- 94
2020-03-30 00:00:00 5 13 Norte 25 Norte 0.2 -- -- 95
2020-03-29 23:00:00 5.9 16 Noroeste 31 Noroeste 0.2 -- -- 89
2020-03-29 22:00:00 7.7 15 Noroeste 31 Noroeste 0 -- -- 83
2020-03-29 21:00:00 8.7 14 Noroeste 26 Noroeste 0 -- -- 83
2020-03-29 20:00:00 9.1 7 Noroeste 24 Noroeste 0 -- -- 87
2020-03-29 19:00:00 9.3 0 Calma 11 Noroeste 0 -- -- 89
2020-03-29 18:00:00 9.4 4 Noroeste 14 Noroeste 0 -- -- 89
2020-03-29 17:00:00 9.5 6 Noroeste 22 Noroeste 0 -- -- 91
2020-03-29 16:00:00 10.2 10 Norte 20 Noroeste 0.4 -- -- 94
2020-03-29 15:00:00 11.7 4 Norte 14 Noroeste 0 -- -- 74
2020-03-29 14:00:00 13.2 3 Nordeste 14 Oeste 0 -- -- 74
2020-03-29 13:00:00 12.1 0 Calma 15 Norte 0 -- -- 73
2020-03-29 12:00:00 11.1 3 Norte 9 Noroeste 0 -- -- 75
2020-03-29 11:00:00 9.3 0 Calma 5 Nordeste 0 -- -- 88
2020-03-29 10:00:00 4.5 0 Calma 3 Sur 0 -- -- 100
2020-03-29 09:00:00 2.9 2 Sur 5 Sur 0 -- -- 99
2020-03-29 08:00:00 2.6 0 Calma 4 Sudeste 0 -- -- 99
2020-03-29 07:00:00 2.5 0 Calma 6 Sudeste 0 -- -- 98
2020-03-29 06:00:00 2.6 2 Sur 4 Sur 0 -- -- 97
2020-03-29 05:00:00 2.6 3 Sudeste 5 Sur 0 -- -- 97
2020-03-29 03:00:00 3.4 0 Calma 5 Sudeste 0 -- -- 94
2020-03-29 01:00:00 4.1 2 Sudoeste 4 Sudeste 0 -- -- 92
2020-03-29 00:00:00 5.1 3 Sur 5 Sudeste 0 -- -- 88
2020-03-28 23:00:00 6.3 0 Calma 4 Noroeste 0 -- -- 83
2020-03-28 22:00:00 7.4 0 Calma 6 Sudeste 0 -- -- 78
2020-03-28 21:00:00 9.1 3 Sur 6 Sudeste 0 -- -- 69
2020-03-28 20:00:00 11.3 4 Oeste 13 Noroeste 0 -- -- 57
2020-03-28 19:00:00 12.8 7 Noroeste 15 Noroeste 0 -- -- 54
2020-03-28 18:00:00 14.2 8 Noroeste 15 Noroeste 0 -- -- 54
2020-03-28 17:00:00 14.7 9 Noroeste 19 Noroeste 0 -- -- 52
2020-03-28 16:00:00 15.7 10 Norte 21 Norte 0 -- -- 50
2020-03-28 15:00:00 16.2 8 Noroeste 22 Noroeste 0 -- -- 50
2020-03-28 14:00:00 16 7 Noroeste 22 Noroeste 0 -- -- 57
2020-03-28 13:00:00 17.2 6 Sudoeste 17 Norte 0 -- -- 51
2020-03-28 12:00:00 16.5 5 Norte 13 Noroeste 0 -- -- 54
2020-03-28 11:00:00 14.7 0 Calma 6 Sudeste 0 -- -- 61
2020-03-28 10:00:00 10.5 0 Calma 5 Este 0 -- -- 69
2020-03-28 09:00:00 5.3 0 Calma 4 Sudeste 0 -- -- 99
2020-03-28 08:00:00 1.7 0 Calma 5 Sur 0 -- -- 100
2020-03-28 07:00:00 1.4 3 Sur 7 Sur 0 -- -- 100
2020-03-28 06:00:00 1.6 0 Calma 4 Sudeste 0 -- -- 99
2020-03-28 05:00:00 1.8 2 Sudoeste 4 Sudoeste 0 -- -- 99
2020-03-28 04:00:00 2.1 3 Sur 6 Sur 0 -- -- 98
2020-03-28 03:00:00 2.7 2 Sudoeste 5 Sudeste 0 -- -- 97
2020-03-28 02:00:00 3.1 2 Sur 7 Sudeste 0 -- -- 96
2020-03-28 01:00:00 3.8 4 Sur 7 Sudeste 0 -- -- 94
2020-03-28 00:00:00 4.6 0 Calma 6 Noroeste 0 -- -- 92
2020-03-27 23:00:00 5.5 0 Calma 5 Norte 0 -- -- 89
2020-03-27 22:00:00 6.4 0 Calma 5 Este 0 -- -- 85
2020-03-27 21:00:00 7.7 2 Sur 8 Sudeste 0 -- -- 79
2020-03-27 20:00:00 9.4 0 Calma 15 Noroeste 0 -- -- 72
2020-03-27 19:00:00 10.7 8 Noroeste 16 Noroeste 0 -- -- 67
2020-03-27 18:00:00 11.4 8 Noroeste 22 Noroeste 0 -- -- 63
2020-03-27 17:00:00 12.8 13 Noroeste 25 Noroeste 0 -- -- 58
2020-03-27 16:00:00 14.1 6 Norte 15 Norte 0 -- -- 56
2020-03-27 15:00:00 13.8 4 Noroeste 18 Noroeste 0 -- -- 54
2020-03-27 14:00:00 14.5 9 Noroeste 19 Noroeste 0 -- -- 51
2020-03-27 13:00:00 13 8 Norte 19 Noroeste 0 -- -- 52
2020-03-27 12:00:00 12.6 8 Noroeste 19 Norte 0 -- -- 53
2020-03-27 11:00:00 13.6 4 Nordeste 8 Nordeste 0 -- -- 56
2020-03-27 10:00:00 8.9 2 Este 6 Oeste 0 -- -- 75
2020-03-27 09:00:00 3.2 0 Calma 4 Sur 0 -- -- 95
2020-03-27 08:00:00 0.2 0 Calma 6 Sudeste 0 -- -- 99
2020-03-27 07:00:00 -0.1 2 Sudeste 7 Sudeste 0 -- -- 98
2020-03-27 06:00:00 0 0 Calma 8 Sudeste 0 -- -- 97
2020-03-27 05:00:00 0.4 2 Sur 6 Sudeste 0 -- -- 96
2020-03-27 04:00:00 0.8 2 Sur 7 Sur 0 -- -- 95
2020-03-27 03:00:00 1.3 2 Sur 8 Sur 0 -- -- 92
2020-03-27 02:00:00 1.9 2 Sur 8 Este 0 -- -- 90
2020-03-27 01:00:00 2.5 3 Sur 6 Sudeste 0 -- -- 87
2020-03-27 00:00:00 3.5 2 Sudeste 5 Este 0 -- -- 81
2020-03-26 23:00:00 4.4 3 Sudeste 7 Este 0 -- -- 77
2020-03-26 22:00:00 5 2 Sudeste 6 Este 0 -- -- 73
2020-03-26 21:00:00 6.1 3 Sur 8 Sudeste 0 -- -- 70
2020-03-26 20:00:00 7.7 0 Calma 12 Noroeste 0 -- -- 59
2020-03-26 19:00:00 8.8 2 Oeste 12 Norte 0 -- -- 52
2020-03-26 18:00:00 9.9 6 Noroeste 17 Noroeste 0 -- -- 53
2020-03-26 17:00:00 10.3 9 Noroeste 31 Noroeste 0 -- -- 50
2020-03-26 16:00:00 11.3 13 Noroeste 31 Norte 0 -- -- 47
2020-03-26 15:00:00 11.9 9 Noroeste 27 Norte 0 -- -- 41
2020-03-26 14:00:00 12.5 9 Norte 31 Noroeste 0 -- -- 38
2020-03-26 13:00:00 11.9 10 Norte 35 Norte 0 -- -- 50
2020-03-26 12:00:00 11.2 19 Norte 40 Norte 0 -- -- 45
2020-03-26 11:00:00 10.6 14 Noroeste 32 Noroeste 0 -- -- 59
2020-03-26 10:00:00 10.1 14 Noroeste 32 Norte 0 -- -- 63
2020-03-26 09:00:00 10.1 13 Norte 42 Noroeste 0 -- -- 60
2020-03-26 08:00:00 9.9 15 Noroeste 35 Noroeste 0 -- -- 64
2020-03-26 07:00:00 9.9 9 Noroeste 32 Norte 0 -- -- 69
2020-03-26 06:00:00 10.2 12 Noroeste 27 Noroeste 0 -- -- 65
2020-03-26 05:00:00 10.2 11 Noroeste 25 Noroeste 0 -- -- 69
2020-03-26 04:00:00 10 5 Noroeste 32 Noroeste 0 -- -- 80
2020-03-26 03:00:00 9.3 8 Norte 26 Noroeste 0 -- -- 88
2020-03-26 02:00:00 7.9 2 Sudeste 9 Sudeste 0.2 -- -- 90
2020-03-26 01:00:00 8.3 4 Este 8 Nordeste 0 -- -- 84
2020-03-26 00:00:00 8.2 0 Calma 5 Sur 0 -- -- 77
2020-03-25 23:00:00 8 3 Sur 5 Sudeste 0 -- -- 78
2020-03-25 22:00:00 8.2 0 Calma 10 Sudoeste 0 -- -- 79
2020-03-25 21:00:00 8.8 5 Sudoeste 15 Sudoeste 0 -- -- 72
2020-03-25 20:00:00 9.4 3 Sudeste 17 Noroeste 0 -- -- 73
2020-03-25 19:00:00 10.5 8 Norte 20 Norte 0 -- -- 73
2020-03-25 18:00:00 12.9 5 Sudoeste 18 Norte 0 -- -- 63
2020-03-25 17:00:00 13.8 9 Noroeste 23 Noroeste 0 -- -- 59
2020-03-25 16:00:00 15.8 9 Sur 19 Sudoeste 0 -- -- 60
2020-03-25 15:00:00 16.5 5 Noroeste 22 Noroeste 0 -- -- 64
2020-03-25 14:00:00 16.5 9 Noroeste 20 Norte 0 -- -- 63
2020-03-25 13:00:00 18.1 8 Sur 24 Sudoeste 0 -- -- 57
2020-03-25 12:00:00 16.5 4 Norte 15 Noroeste 0 -- -- 66
2020-03-25 11:00:00 16.4 6 Nordeste 12 Nordeste 0 -- -- 68
2020-03-25 10:00:00 11.6 0 Calma 6 Nordeste 0 -- -- 86
2020-03-25 09:00:00 7.3 0 Calma 4 Sur 0 -- -- 100
2020-03-25 08:00:00 4.7 0 Calma 4 Sur 0 -- -- 100
2020-03-25 07:00:00 4.7 0 Calma 3 Sudoeste 0 -- -- 100
2020-03-25 06:00:00 5 0 Calma 5 Noroeste 0 -- -- 100
2020-03-25 05:00:00 5.4 0 Calma 3 Sur 0 -- -- 100
2020-03-25 04:00:00 5.8 0 Calma 5 Sudeste 0 -- -- 99
2020-03-25 03:00:00 6.3 0 Calma 5 Sudeste 0 -- -- 99
2020-03-25 02:00:00 6.9 0 Calma 5 Noroeste 0 -- -- 99
2020-03-25 01:00:00 7.5 2 Sur 5 Sudeste 0 -- -- 97
2020-03-25 00:00:00 8.4 0 Calma 6 Noroeste 0 -- -- 97
2020-03-24 23:00:00 9.2 2 Sudoeste 6 Noroeste 0 -- -- 94
2020-03-24 22:00:00 10.3 3 Noroeste 9 Noroeste 0 -- -- 92
2020-03-24 21:00:00 11.8 0 Calma 4 Este 0 -- -- 90
2020-03-24 20:00:00 13.3 2 Sudoeste 11 Oeste 0 -- -- 83
2020-03-24 19:00:00 15.1 6 Noroeste 22 Oeste 0 -- -- 74
2020-03-24 18:00:00 17.5 10 Noroeste 21 Noroeste 0 -- -- 59
2020-03-24 17:00:00 18.5 9 Noroeste 21 Noroeste 0 -- -- 52
2020-03-24 16:00:00 18.5 9 Norte 27 Noroeste 0 -- -- 57
2020-03-24 15:00:00 18.6 12 Noroeste 21 Noroeste 0 -- -- 59
2020-03-24 14:00:00 18 11 Noroeste 21 Noroeste 0 -- -- 62
2020-03-24 13:00:00 19.1 12 Norte 20 Norte 0 -- -- 65
2020-03-24 12:00:00 18.8 3 Nordeste 9 Nordeste 0 -- -- 56
2020-03-24 11:00:00 16.4 4 Norte 6 Norte 0 -- -- 82
2020-03-24 10:00:00 13.3 2 Norte 5 Norte 0 -- -- 91
2020-03-24 09:00:00 10 0 Calma 3 Sur 0 -- -- 100
2020-03-24 08:00:00 9.1 0 Calma 6 Norte 0 -- -- 100
2020-03-24 07:00:00 8.9 0 Calma 5 Norte 0 -- -- 100
2020-03-24 06:00:00 9.1 0 Calma 3 Nordeste 0 -- -- 100
2020-03-24 05:00:00 9.2 0 Calma 4 Norte 0 -- -- 100
2020-03-24 04:00:00 9.2 4 Nordeste 9 Norte 0 -- -- 100
2020-03-24 03:00:00 9.5 0 Calma 5 Nordeste 0 -- -- 100
2020-03-24 02:00:00 9.8 4 Norte 8 Norte 0 -- -- 100
2020-03-24 01:00:00 10.3 6 Norte 8 Norte 0 -- -- 100
2020-03-24 00:00:00 10.7 0 Calma 5 Norte 0 -- -- 100
2020-03-23 23:00:00 10.8 0 Calma 6 Nordeste 0 -- -- 100
2020-03-23 22:00:00 11.1 2 Sudoeste 7 Norte 0.2 -- -- 100
2020-03-23 21:00:00 11.3 0 Calma 4 Noroeste 0.6 -- -- 98
2020-03-23 20:00:00 11.8 0 Calma 3 Sudoeste 0 -- -- 96
2020-03-23 19:00:00 12.4 0 Calma 6 Oeste 1.6 -- -- 94
2020-03-23 18:00:00 13.6 2 Sudoeste 13 Sudoeste 0 -- -- 83
2020-03-23 17:00:00 14.5 9 Sur 17 Sur 0 -- -- 78
2020-03-23 16:00:00 15.4 4 Oeste 15 Oeste 0 -- -- 73
2020-03-23 15:00:00 16.6 7 Noroeste 23 Noroeste 0 -- -- 68
2020-03-23 14:00:00 16.4 9 Norte 15 Norte 0 -- -- 72
2020-03-23 13:00:00 15 5 Norte 11 Noroeste 0 -- -- 79
2020-03-23 12:00:00 13.9 2 Norte 8 Sur 0 -- -- 82
2020-03-23 11:00:00 12.6 3 Sudoeste 6 Sur 0 -- -- 85
2020-03-23 10:00:00 11.4 0 Calma 3 Noroeste 0 -- -- 89
2020-03-23 09:00:00 9.9 0 Calma 3 Sudoeste 0 -- -- 97
2020-03-23 08:00:00 9.2 0 Calma 3 Sur 0 -- -- 96
2020-03-23 07:00:00 9 0 Calma 3 Sudoeste 0 -- -- 95
2020-03-23 06:00:00 9 0 Calma 3 Sudoeste 0 -- -- 95
2020-03-23 05:00:00 8.9 0 Calma 5 Este 0 -- -- 95
2020-03-23 04:00:00 8.7 2 Sur 6 Este 0 -- -- 95
2020-03-23 03:00:00 8.6 0 Calma 5 Sudeste 0 -- -- 96
2020-03-23 02:00:00 8.5 2 Sur 5 Este 0 -- -- 96
2020-03-23 01:00:00 8.7 0 Calma 6 Este 0 -- -- 95
2020-03-23 00:00:00 9.2 0 Calma 5 Noroeste 0 -- -- 94
2020-03-22 23:00:00 9.9 0 Calma 6 Sudeste 0 -- -- 92
2020-03-22 22:00:00 10.3 3 Sudeste 5 Sudeste 0 -- -- 90
2020-03-22 21:00:00 10.8 0 Calma 6 Noroeste 0 -- -- 89
2020-03-22 20:00:00 11.5 0 Calma 6 Sudoeste 0 -- -- 87
2020-03-22 19:00:00 13.1 3 Sudoeste 6 Sudoeste 0 -- -- 78
2020-03-22 18:00:00 13.4 2 Norte 9 Noroeste 0 -- -- 78
2020-03-22 17:00:00 13.9 3 Norte 17 Norte 0 -- -- 76
2020-03-22 16:00:00 14.1 8 Norte 19 Norte 0 -- -- 78
2020-03-22 15:00:00 14.9 12 Norte 21 Norte 0 -- -- 73
2020-03-22 14:00:00 14.9 12 Norte 24 Norte 0 -- -- 74
2020-03-22 13:00:00 15.9 13 Norte 24 Norte 0 -- -- 71
2020-03-22 12:00:00 17.5 6 Norte 18 Noroeste 0 -- -- 69
2020-03-22 11:00:00 15.8 6 Norte 12 Norte 0 -- -- 74
2020-03-22 10:00:00 12.6 3 Norte 6 Norte 0 -- -- 85
2020-03-22 09:00:00 8.8 0 Calma 4 Norte 0 -- -- 96
2020-03-22 08:00:00 7.3 0 Calma 3 Sur 0 -- -- 96
2020-03-22 07:00:00 6.7 0 Calma 6 Sudoeste 0 -- -- 95
2020-03-22 06:00:00 7 0 Calma 4 Sudoeste 0 -- -- 92
2020-03-22 05:00:00 7.3 0 Calma 7 Norte 0 -- -- 93
2020-03-22 04:00:00 7.6 2 Oeste 9 Noroeste 0 -- -- 91
2020-03-22 03:00:00 8.2 3 Noroeste 8 Norte 0 -- -- 91
2020-03-22 02:00:00 8.8 2 Norte 14 Norte 0 -- -- 88
2020-03-22 01:00:00 9.2 8 Norte 14 Noroeste 0 -- -- 86
2020-03-22 00:00:00 9.8 10 Norte 15 Noroeste 0 -- -- 84
2020-03-21 23:00:00 10.6 8 Noroeste 15 Norte 0 -- -- 79
2020-03-21 22:00:00 11.1 8 Norte 12 Noroeste 0 -- -- 80
2020-03-21 21:00:00 13 7 Noroeste 15 Sudeste 0 -- -- 69
2020-03-21 20:00:00 16.2 6 Sudeste 13 Sudeste 0 -- -- 50
2020-03-21 19:00:00 17.9 10 Sur 16 Sur 0 -- -- 44
2020-03-21 18:00:00 20.1 8 Sur 19 Sur 0 -- -- 40
2020-03-21 17:00:00 20.6 10 Sur 23 Sudeste 0 -- -- 37
2020-03-21 16:00:00 19.3 7 Este 24 Sudeste 0 -- -- 46
2020-03-21 15:00:00 20.3 14 Este 30 Este 0 -- -- 43
2020-03-21 14:00:00 20.3 12 Sur 26 Este 0 -- -- 45
2020-03-21 13:00:00 19 11 Sudeste 31 Sudeste 0 -- -- 49
2020-03-21 12:00:00 17.8 20 Sudeste 41 Sudeste 0 -- -- 41
2020-03-21 11:00:00 17 17 Sudeste 35 Sudeste 0 -- -- 42
2020-03-21 10:00:00 15.4 17 Sudeste 35 Sudeste 0 -- -- 47
2020-03-21 09:00:00 14.1 15 Sudeste 32 Sudeste 0 -- -- 48
2020-03-21 08:00:00 13.3 17 Sudeste 33 Sudeste 0 -- -- 52
2020-03-21 07:00:00 13.1 14 Sudeste 37 Este 0 -- -- 56
2020-03-21 06:00:00 13.2 12 Sudeste 34 Sudeste 0 -- -- 58
2020-03-21 05:00:00 13.2 12 Sur 24 Sudeste 0 -- -- 60
2020-03-21 04:00:00 13.6 12 Sudeste 27 Sudeste 0 -- -- 59
2020-03-21 03:00:00 13.9 12 Sur 22 Sudeste 0 -- -- 59
2020-03-21 02:00:00 14 8 Este 19 Este 0 -- -- 61
2020-03-21 01:00:00 14.5 9 Sudeste 24 Este 0 -- -- 57
2020-03-21 00:00:00 14.5 10 Este 23 Este 0 -- -- 58
2020-03-20 23:00:00 14.6 8 Este 27 Nordeste 0 -- -- 59
2020-03-20 22:00:00 15.1 15 Este 40 Este 0 -- -- 57
2020-03-20 21:00:00 15.4 15 Este 37 Este 0 -- -- 54
2020-03-20 20:00:00 16 12 Sudeste 28 Sur 0 -- -- 53
2020-03-20 19:00:00 16.7 6 Este 32 Sur 0 -- -- 51
2020-03-20 18:00:00 17.9 12 Sur 33 Sudeste 0 -- -- 50
2020-03-20 17:00:00 18.5 17 Sur 39 Sudeste 0 -- -- 47
2020-03-20 16:00:00 19.1 15 Sudeste 39 Sudeste 0 -- -- 45
2020-03-20 15:00:00 18.9 14 Sudeste 46 Sudeste 0 -- -- 46
2020-03-20 14:00:00 18.7 15 Sudeste 46 Este 0 -- -- 45
2020-03-20 13:00:00 18.1 21 Sur 46 Sudeste 0 -- -- 46
2020-03-20 12:00:00 17.5 23 Este 49 Sudeste 0 -- -- 47
2020-03-20 11:00:00 15.9 17 Sudeste 42 Este 0 -- -- 46
2020-03-20 10:00:00 16.4 15 Este 48 Este 0 -- -- 48
2020-03-20 09:00:00 15.3 18 Este 38 Este 0 -- -- 48
2020-03-20 08:00:00 14.2 17 Este 36 Sudeste 0 -- -- 50
2020-03-20 07:00:00 14.1 19 Este 49 Este 0 -- -- 47
2020-03-20 06:00:00 14.6 21 Este 48 Este 0 -- -- 44
2020-03-20 05:00:00 15.1 18 Sudeste 51 Este 0 -- -- 42
2020-03-20 04:00:00 15.4 18 Este 44 Este 0 -- -- 45
2020-03-20 03:00:00 15.3 18 Este 45 Este 0 -- -- 50
2020-03-20 02:00:00 15.7 18 Sudeste 43 Sudeste 0 -- -- 53
2020-03-20 01:00:00 15.6 17 Este 29 Este 0 -- -- 55
2020-03-20 00:00:00 15.8 14 Este 36 Este 0 -- -- 53
2020-03-19 23:00:00 16.3 17 Este 33 Este 0 -- -- 48
2020-03-19 22:00:00 17 11 Sudeste 27 Sudoeste 0 -- -- 45
2020-03-19 21:00:00 17.6 13 Sur 32 Sudeste 0 -- -- 43
2020-03-19 20:00:00 17.9 14 Sudeste 35 Este 0 -- -- 45
2020-03-19 19:00:00 18.3 6 Sudeste 27 Este 0 -- -- 54
2020-03-19 18:00:00 19.1 10 Nordeste 28 Este 0 -- -- 53
2020-03-19 17:00:00 20.5 9 Sudeste 41 Este 0 -- -- 48
2020-03-19 16:00:00 21.7 13 Sudeste 33 Sudeste 0 -- -- 39
2020-03-19 15:00:00 23 12 Sur 32 Sudeste 0 -- -- 36
2020-03-19 14:00:00 22.7 12 Sudeste 36 Este 0 -- -- 39
2020-03-19 13:00:00 21.6 16 Sudeste 28 Este 0 -- -- 46
2020-03-19 12:00:00 21.5 11 Sudeste 29 Este 0 -- -- 44
2020-03-19 11:00:00 19.8 9 Sudeste 21 Nordeste 0 -- -- 50
2020-03-19 10:00:00 18.7 7 Este 21 Sudeste 0 -- -- 55
2020-03-19 09:00:00 16.2 10 Sudeste 25 Este 0 -- -- 56
2020-03-19 08:00:00 14.3 4 Noroeste 13 Noroeste 0 -- -- 74
2020-03-19 07:00:00 13.1 5 Norte 14 Sudeste 0 -- -- 82
2020-03-19 06:00:00 13 4 Este 12 Sudeste 0 -- -- 80
2020-03-19 05:00:00 13.9 3 Nordeste 14 Nordeste 0 -- -- 78
2020-03-19 04:00:00 13.6 5 Este 13 Sudeste 0 -- -- 79
2020-03-19 03:00:00 11.6 5 Norte 13 Noroeste 0 -- -- 92
2020-03-19 02:00:00 10.8 6 Noroeste 10 Norte 0 -- -- 98
2020-03-19 01:00:00 11.1 6 Noroeste 11 Norte 0 -- -- 97
2020-03-19 00:00:00 11.4 5 Norte 11 Norte 0 -- -- 98
2020-03-18 23:00:00 12 3 Noroeste 12 Noroeste 0 -- -- 98
2020-03-18 22:00:00 12.4 7 Norte 10 Norte 0 -- -- 97
2020-03-18 21:00:00 13.3 6 Norte 8 Noroeste 0 -- -- 95
2020-03-18 20:00:00 15.4 0 Calma 2 Noroeste 0 -- -- 85
2020-03-18 19:00:00 18.3 0 Calma 5 Sudoeste 0 -- -- 72
2020-03-18 18:00:00 19.7 3 Sudoeste 6 Sudoeste 0 -- -- 67
2020-03-18 17:00:00 19.7 3 Noroeste 9 Norte 0 -- -- 62
2020-03-18 16:00:00 20.9 4 Noroeste 8 Noroeste 0 -- -- 59
2020-03-18 15:00:00 23.1 3 Sudeste 9 Sur 0 -- -- 54
2020-03-18 14:00:00 20.7 3 Noroeste 8 Oeste 0 -- -- 62
2020-03-18 13:00:00 19.5 2 Oeste 6 Sur 0 -- -- 69
2020-03-18 12:00:00 16.1 0 Calma 5 Sur 0 -- -- 83
2020-03-18 11:00:00 12.8 0 Calma 4 Norte 0 -- -- 97
2020-03-18 10:00:00 10.3 0 Calma 4 Norte 0 -- -- 100
2020-03-18 09:00:00 8.4 0 Calma 5 Noroeste 0 -- -- 100
2020-03-18 08:00:00 7.3 0 Calma 5 Norte 0 -- -- 100
2020-03-18 07:00:00 7.1 0 Calma 5 Norte 0 -- -- 100
2020-03-18 06:00:00 7.4 0 Calma 6 Nordeste 0 -- -- 100
2020-03-18 05:00:00 7.6 2 Sudoeste 3 Nordeste 0 -- -- 100
2020-03-18 04:00:00 8 2 Sudoeste 4 Sudoeste 0 -- -- 100
2020-03-18 03:00:00 8.4 0 Calma 4 Sudoeste 0 -- -- 100
2020-03-18 02:00:00 8.8 0 Calma 7 Nordeste 0 -- -- 100
2020-03-18 01:00:00 9.1 0 Calma 6 Sudeste 0 -- -- 100
2020-03-18 00:00:00 9.5 3 Sur 5 Noroeste 0 -- -- 100
2020-03-17 23:00:00 10.2 0 Calma 5 Sudeste 0 -- -- 99
2020-03-17 22:00:00 11 0 Calma 5 Noroeste 0 -- -- 97
2020-03-17 21:00:00 11.7 0 Calma 5 Sudoeste 0 -- -- 96
2020-03-17 20:00:00 12 3 Sudoeste 8 Sudoeste 0 -- -- 95
2020-03-17 19:00:00 12.8 3 Sudoeste 9 Sudoeste 0 -- -- 91
2020-03-17 18:00:00 13.7 0 Calma 6 Sudoeste 0 -- -- 88
2020-03-17 17:00:00 14 0 Calma 2 Sudeste 0 -- -- 89
2020-03-17 16:00:00 13.8 0 Calma 6 Norte 0 -- -- 88
2020-03-17 15:00:00 13.3 0 Calma 5 Sudoeste 0 -- -- 90
2020-03-17 14:00:00 12.8 3 Sur 8 Sur 0 -- -- 95
2020-03-17 13:00:00 12 0 Calma 6 Sudoeste 0 -- -- 98
2020-03-17 12:00:00 11.9 0 Calma 6 Sudoeste 0 -- -- 100
2020-03-17 11:00:00 11.3 0 Calma 4 Sudoeste 0 -- -- 100
2020-03-17 10:00:00 10.8 0 Calma 3 Oeste 0 -- -- 100
2020-03-17 09:00:00 9.9 0 Calma 3 Noroeste 0 -- -- 100
2020-03-17 08:00:00 9.6 0 Calma 4 Sudeste 0 -- -- 100
2020-03-17 07:00:00 9.5 0 Calma 2 Sur 0 -- -- 100
2020-03-17 06:00:00 9.4 0 Calma 2 Sudoeste 0 -- -- 100
2020-03-17 05:00:00 9.5 0 Calma 3 Norte 0 -- -- 100
2020-03-17 04:00:00 9.4 0 Calma 4 Sur 0 -- -- 100
2020-03-17 03:00:00 9.4 0 Calma 3 Sur 0.2 -- -- 100
2020-03-17 02:00:00 9.5 0 Calma 4 Sudoeste 0 -- -- 100
2020-03-17 01:00:00 9.4 0 Calma 2 Sudoeste 0.2 -- -- 100
2020-03-17 00:00:00 9.4 0 Calma 6 Oeste 0 -- -- 100
2020-03-16 23:00:00 9.3 0 Calma 5 Sudoeste 1.6 -- -- 100
2020-03-16 22:00:00 9.3 2 Sur 8 Sudoeste 1.2 -- -- 100
2020-03-16 21:00:00 9.2 3 Sudoeste 5 Sur 0.6 -- -- 100
2020-03-16 20:00:00 9.2 3 Sudoeste 5 Sudoeste 0.2 -- -- 100
2020-03-16 19:00:00 9.2 0 Calma 6 Oeste 0.4 -- -- 99
2020-03-16 18:00:00 9.4 3 Oeste 12 Nordeste 1.2 -- -- 98
2020-03-16 17:00:00 9.7 5 Noroeste 17 Noroeste 0.4 -- -- 97
2020-03-16 16:00:00 10.6 3 Sudoeste 5 Sudoeste 0 -- -- 97
2020-03-16 15:00:00 10.3 3 Noroeste 10 Noroeste 0.4 -- -- 94
2020-03-16 14:00:00 10.3 3 Oeste 9 Noroeste 0.8 -- -- 97
2020-03-16 13:00:00 10.1 0 Calma 8 Oeste 0.6 -- -- 99
2020-03-16 12:00:00 9.9 0 Calma 3 Sur 0.8 -- -- 100
2020-03-16 11:00:00 9.1 0 Calma 2 Sur 1.2 -- -- 100
2020-03-16 10:00:00 8.7 0 Calma 3 Sudoeste 1.4 -- -- 100
2020-03-16 09:00:00 8.2 0 Calma 14 Sudoeste 2 -- -- 99
2020-03-16 08:00:00 7.9 6 Sudoeste 17 Sudoeste 6.8 -- -- 98
2020-03-16 07:00:00 7.9 0 Calma 22 Oeste 5.4 -- -- 97
2020-03-16 06:00:00 8.1 5 Sudoeste 23 Sudoeste 4.8 -- -- 98
2020-03-16 05:00:00 8.1 5 Oeste 16 Noroeste 4.8 -- -- 98
2020-03-16 04:00:00 8.1 3 Sur 21 Nordeste 6 -- -- 99
2020-03-16 03:00:00 8 3 Sur 13 Sur 3.2 -- -- 98
2020-03-16 02:00:00 8.4 5 Norte 22 Sudoeste 4.2 -- -- 97
2020-03-16 01:00:00 8.8 4 Oeste 14 Sudoeste 2.8 -- -- 93
2020-03-16 00:00:00 9.1 6 Sudeste 14 Sudoeste 2.2 -- -- 99
2020-03-15 23:00:00 9.5 0 Calma 5 Sur 0.8 -- -- 99
2020-03-15 22:00:00 9.6 0 Calma 15 Sudoeste 6.6 -- -- 97
2020-03-15 21:00:00 9.9 0 Calma 14 Sudoeste 5.8 -- -- 96
2020-03-15 20:00:00 10.4 5 Sur 14 Sudoeste 6.4 -- -- 96
2020-03-15 19:00:00 11.6 7 Sur 15 Sudoeste 0.2 -- -- 89
2020-03-15 18:00:00 12 2 Noroeste 9 Norte 0 -- -- 86
2020-03-15 17:00:00 12.5 5 Norte 18 Noroeste 0 -- -- 84
2020-03-15 16:00:00 13.7 4 Norte 18 Noroeste 0 -- -- 81
2020-03-15 15:00:00 15.9 7 Norte 26 Norte 0 -- -- 74
2020-03-15 14:00:00 18.3 15 Norte 33 Norte 0 -- -- 63
2020-03-15 13:00:00 21.9 13 Este 31 Este 0 -- -- 37
2020-03-15 12:00:00 19.6 15 Este 39 Este 0 -- -- 38
2020-03-15 11:00:00 19.5 17 Sur 50 Sudeste 0 -- -- 35
2020-03-15 10:00:00 18.4 21 Este 38 Este 0 -- -- 38
2020-03-15 09:00:00 16.9 14 Sudeste 33 Sudeste 0 -- -- 42
2020-03-15 08:00:00 14.5 20 Sudeste 36 Sudeste 0 -- -- 50
2020-03-15 07:00:00 14 22 Sudeste 42 Sudeste 0 -- -- 49
2020-03-15 06:00:00 8.4 8 Nordeste 19 Sur 0 -- -- 74
2020-03-15 05:00:00 3.7 7 Norte 16 Noroeste 0 -- -- 100
2020-03-15 04:00:00 3.5 3 Norte 9 Norte 0 -- -- 100
2020-03-15 03:00:00 3.4 2 Sur 8 Noroeste 0 -- -- 99
2020-03-15 02:00:00 3.9 2 Oeste 6 Noroeste 0 -- -- 98
2020-03-15 01:00:00 4.5 2 Sur 6 Sudeste 0 -- -- 97
2020-03-15 00:00:00 5.2 3 Noroeste 9 Noroeste 0 -- -- 95
2020-03-14 23:00:00 6.2 3 Noroeste 7 Noroeste 0 -- -- 95
2020-03-14 22:00:00 6.9 2 Oeste 6 Noroeste 0 -- -- 90
2020-03-14 21:00:00 8.3 3 Noroeste 5 Noroeste 0 -- -- 87
2020-03-14 20:00:00 10.1 0 Calma 5 Sudoeste 0 -- -- 79
2020-03-14 19:00:00 12.2 2 Oeste 13 Noroeste 0 -- -- 65
2020-03-14 18:00:00 13.1 6 Noroeste 18 Norte 0 -- -- 62
2020-03-14 17:00:00 13.2 8 Norte 14 Norte 0 -- -- 65
2020-03-14 16:00:00 13.4 7 Noroeste 12 Norte 0 -- -- 67
2020-03-14 15:00:00 13.6 4 Norte 18 Norte 0 -- -- 62
2020-03-14 14:00:00 13.6 9 Norte 15 Norte 0 -- -- 65
2020-03-14 13:00:00 13.5 8 Norte 16 Noroeste 0 -- -- 64
2020-03-14 12:00:00 13.6 9 Norte 18 Norte 0 -- -- 65
2020-03-14 11:00:00 13.6 4 Nordeste 7 Norte 0 -- -- 61
2020-03-14 10:00:00 9.4 0 Calma 6 Nordeste 0 -- -- 82
2020-03-14 09:00:00 6.9 0 Calma 12 Este 0 -- -- 96
2020-03-14 08:00:00 4.8 2 Sur 5 Sur 0 -- -- 99
2020-03-14 07:00:00 5.2 3 Sur 5 Sudeste 0 -- -- 98
2020-03-14 06:00:00 6.2 0 Calma 2 Sudeste 0 -- -- 96
2020-03-14 05:00:00 6.8 0 Calma 5 Nordeste 0 -- -- 94
2020-03-14 04:00:00 7.1 0 Calma 5 Norte 0 -- -- 95
2020-03-14 03:00:00 7 0 Calma 6 Nordeste 0 -- -- 96
2020-03-14 02:00:00 7 2 Sudeste 6 Sudeste 0 -- -- 94
2020-03-14 01:00:00 7.3 3 Norte 7 Norte 0 -- -- 94
2020-03-14 00:00:00 8 0 Calma 4 Sudeste 0 -- -- 91
2020-03-13 23:00:00 8.4 2 Sudeste 5 Sudeste 0 -- -- 87
2020-03-13 22:00:00 8.7 0 Calma 5 Noroeste 0 -- -- 86
2020-03-13 21:00:00 9.1 3 Noroeste 6 Norte 0 -- -- 84
2020-03-13 20:00:00 9.8 3 Noroeste 14 Noroeste 0 -- -- 75
2020-03-13 19:00:00 10.3 5 Noroeste 14 Noroeste 0 -- -- 77
2020-03-13 18:00:00 11.1 8 Norte 14 Norte 0 -- -- 73
2020-03-13 17:00:00 11.6 8 Norte 17 Norte 0 -- -- 73
2020-03-13 16:00:00 11.6 8 Noroeste 18 Noroeste 0 -- -- 74
2020-03-13 15:00:00 11.8 9 Norte 20 Norte 0 -- -- 71
2020-03-13 14:00:00 12.3 12 Norte 21 Norte 0 -- -- 71
2020-03-13 13:00:00 12.3 11 Norte 19 Norte 0 -- -- 74
2020-03-13 12:00:00 12 7 Noroeste 15 Norte 0 -- -- 75
2020-03-13 11:00:00 12.1 2 Norte 10 Noroeste 0 -- -- 73
2020-03-13 10:00:00 11 2 Oeste 6 Norte 0 -- -- 83
2020-03-13 09:00:00 9.5 2 Sudoeste 3 Sudoeste 0 -- -- 100
2020-03-13 08:00:00 8.9 0 Calma 4 Sur 0 -- -- 99
2020-03-13 07:00:00 9 2 Sudoeste 5 Sur 0 -- -- 98
2020-03-13 06:00:00 9.2 0 Calma 2 Sudoeste 0 -- -- 97
2020-03-13 05:00:00 9.3 2 Sudoeste 8 Noroeste 0 -- -- 94
2020-03-13 04:00:00 9.5 5 Noroeste 12 Noroeste 0 -- -- 88
2020-03-13 03:00:00 9.7 0 Calma 8 Noroeste 0 -- -- 92
2020-03-13 02:00:00 10 4 Noroeste 14 Norte 0 -- -- 89
2020-03-13 01:00:00 9.9 6 Noroeste 18 Noroeste 0 -- -- 93
2020-03-13 00:00:00 10.1 7 Noroeste 18 Norte 0 -- -- 96
2020-03-12 23:00:00 10.2 4 Noroeste 22 Norte 0 -- -- 96
2020-03-12 22:00:00 10.7 11 Noroeste 22 Norte 0.4 -- -- 97
2020-03-12 21:00:00 11.7 0 Calma 8 Noroeste 0 -- -- 96
2020-03-12 20:00:00 12 0 Calma 10 Norte 0 -- -- 92
2020-03-12 19:00:00 12.1 3 Noroeste 16 Norte 0 -- -- 91
2020-03-12 18:00:00 12.6 8 Norte 18 Nordeste 0 -- -- 87
2020-03-12 17:00:00 13.3 7 Noroeste 14 Noroeste 0 -- -- 85
2020-03-12 16:00:00 13.5 6 Noroeste 14 Noroeste 0 -- -- 85
2020-03-12 15:00:00 14.1 0 Calma 9 Noroeste 0 -- -- 85
2020-03-12 14:00:00 13.5 4 Norte 13 Norte 0 -- -- 88
2020-03-12 13:00:00 13.2 2 Noroeste 6 Noroeste 0 -- -- 94
2020-03-12 12:00:00 12.6 0 Calma 3 Sur 0 -- -- 100
2020-03-12 11:00:00 11.9 0 Calma 2 Sudeste 0 -- -- 100
2020-03-12 10:00:00 11.3 0 Calma 3 Norte 0 -- -- 100
2020-03-12 09:00:00 10.7 0 Calma 2 Noroeste 0 -- -- 100
2020-03-12 08:00:00 10.4 0 Calma 3 Noroeste 0.2 -- -- 100
2020-03-12 07:00:00 10.3 0 Calma 4 Norte 0 -- -- 100
2020-03-12 06:00:00 10.1 0 Calma 2 Sur 0 -- -- 100
2020-03-12 05:00:00 9.9 2 Sudoeste 3 Sudoeste 0 -- -- 100
2020-03-12 04:00:00 9.7 0 Calma 6 Sudoeste 0 -- -- 100
2020-03-12 03:00:00 9.6 2 Noroeste 5 Sudoeste 0 -- -- 100
2020-03-12 02:00:00 9.5 0 Calma 5 Noroeste 0 -- -- 100
2020-03-12 01:00:00 9.9 3 Noroeste 5 Norte 0 -- -- 100
2020-03-12 00:00:00 10.2 0 Calma 5 Noroeste 0 -- -- 99
2020-03-11 23:00:00 10.8 0 Calma 3 Noroeste 0 -- -- 97
2020-03-11 22:00:00 11.6 0 Calma 7 Oeste 0 -- -- 95
2020-03-11 21:00:00 12.4 2 Norte 5 Oeste 0 -- -- 93
2020-03-11 20:00:00 14.6 2 Sudoeste 5 Sudoeste 0 -- -- 83
2020-03-11 19:00:00 17 2 Sudoeste 12 Oeste 0 -- -- 74
2020-03-11 18:00:00 19.7 8 Sudoeste 18 Sur 0 -- -- 67
2020-03-11 17:00:00 21.7 10 Sudoeste 17 Sur 0 -- -- 62
2020-03-11 16:00:00 22.4 9 Sudoeste 17 Sudoeste 0 -- -- 61
2020-03-11 15:00:00 22.1 6 Sudoeste 16 Sudoeste 0 -- -- 56
2020-03-11 14:00:00 21.3 2 Norte 13 Sudoeste 0 -- -- 56
2020-03-11 13:00:00 20.4 5 Sudoeste 16 Sudoeste 0 -- -- 68
2020-03-11 12:00:00 17.4 4 Sur 8 Sur 0 -- -- 74
2020-03-11 11:00:00 13.2 4 Sur 6 Sur 0 -- -- 89
2020-03-11 10:00:00 8.9 0 Calma 5 Este 0 -- -- 100
2020-03-11 09:00:00 5.6 0 Calma 3 Norte 0 -- -- 100
2020-03-11 08:00:00 4.5 0 Calma 5 Norte 0 -- -- 100
2020-03-11 07:00:00 4.5 2 Sudoeste 4 Norte 0 -- -- 100
2020-03-11 06:00:00 4.8 0 Calma 3 Norte 0 -- -- 100
2020-03-11 05:00:00 5 0 Calma 4 Noroeste 0 -- -- 100
2020-03-11 04:00:00 5.4 0 Calma 4 Noroeste 0 -- -- 100
2020-03-11 03:00:00 5.9 0 Calma 6 Noroeste 0 -- -- 100
2020-03-11 02:00:00 6.3 0 Calma 6 Noroeste 0 -- -- 100
2020-03-11 01:00:00 6.6 0 Calma 4 Noroeste 0 -- -- 100
2020-03-11 00:00:00 7.2 0 Calma 6 Norte 0 -- -- 100
2020-03-10 23:00:00 7.6 0 Calma 8 Norte 0 -- -- 99
2020-03-10 22:00:00 8.3 4 Norte 8 Noroeste 0 -- -- 99
2020-03-10 21:00:00 9.2 3 Noroeste 7 Norte 0 -- -- 96
2020-03-10 20:00:00 10.4 0 Calma 7 Norte 0 -- -- 91
2020-03-10 19:00:00 12.5 4 Sudoeste 10 Noroeste 0 -- -- 81
2020-03-10 18:00:00 13.4 5 Noroeste 14 Noroeste 0 -- -- 77
2020-03-10 17:00:00 13.9 9 Noroeste 18 Noroeste 0 -- -- 75
2020-03-10 16:00:00 16.1 4 Norte 15 Norte 0 -- -- 69
2020-03-10 15:00:00 16.4 5 Noroeste 15 Norte 0 -- -- 70
2020-03-10 14:00:00 16.5 4 Noroeste 13 Norte 0 -- -- 71
2020-03-10 13:00:00 15.7 3 Norte 8 Noroeste 0 -- -- 69
2020-03-10 12:00:00 13.4 2 Nordeste 8 Sur 0 -- -- 85
2020-03-10 11:00:00 10.5 3 Sudoeste 5 Sudoeste 0 -- -- 100
2020-03-10 10:00:00 8.2 0 Calma 3 Este 0 -- -- 100
2020-03-10 09:00:00 5.7 0 Calma 3 Sudeste 0 -- -- 100
2020-03-10 08:00:00 5.1 0 Calma 4 Sudeste 0 -- -- 100
2020-03-10 07:00:00 5.1 0 Calma 4 Sudeste 0 -- -- 100
2020-03-10 06:00:00 5.3 0 Calma 5 Sudeste 0 -- -- 100
2020-03-10 05:00:00 5.3 2 Sur 7 Noroeste 0 -- -- 100
2020-03-10 04:00:00 5.5 2 Sur 7 Noroeste 0 -- -- 100
2020-03-10 03:00:00 6.2 0 Calma 8 Sudeste 0 -- -- 100
2020-03-10 02:00:00 6.8 0 Calma 7 Norte 0 -- -- 99
2020-03-10 01:00:00 7.4 2 Oeste 6 Noroeste 0 -- -- 99
2020-03-10 00:00:00 8.3 2 Noroeste 6 Norte 0 -- -- 99
2020-03-09 23:00:00 9 0 Calma 4 Noroeste 0 -- -- 98
2020-03-09 22:00:00 10 0 Calma 9 Sudoeste 0 -- -- 93
2020-03-09 21:00:00 10.1 6 Noroeste 14 Noroeste 0.2 -- -- 92
2020-03-09 20:00:00 10 2 Sudeste 28 Noroeste 0 -- -- 92
2020-03-09 19:00:00 9.8 6 Noroeste 14 Norte 0.2 -- -- 92
2020-03-09 18:00:00 9.9 5 Oeste 17 Norte 0.4 -- -- 90
2020-03-09 17:00:00 9.8 4 Noroeste 24 Norte 1.6 -- -- 94
2020-03-09 16:00:00 9.7 8 Noroeste 27 Noroeste 0.8 -- -- 88
2020-03-09 15:00:00 11.4 5 Nordeste 22 Oeste 0 -- -- 85
2020-03-09 14:00:00 11.1 8 Norte 26 Norte 0 -- -- 85
2020-03-09 13:00:00 10.5 6 Oeste 41 Noroeste 0 -- -- 85
2020-03-09 12:00:00 10.9 9 Norte 30 Oeste 0 -- -- 81
2020-03-09 11:00:00 9.8 4 Nordeste 14 Norte 0 -- -- 94
2020-03-09 10:00:00 8.7 2 Sudeste 13 Nordeste 1 -- -- 96
2020-03-09 09:00:00 8.8 6 Este 19 Oeste 4.2 -- -- 93
2020-03-09 08:00:00 8.8 4 Nordeste 17 Nordeste 2 -- -- 94
2020-03-09 07:00:00 8.8 6 Norte 29 Sudoeste 1.6 -- -- 95
2020-03-09 06:00:00 8.5 9 Norte 20 Nordeste 0.8 -- -- 95
2020-03-09 05:00:00 8.6 7 Norte 30 Sudoeste 1.8 -- -- 92
2020-03-09 04:00:00 8.5 6 Noroeste 33 Norte 5 -- -- 92
2020-03-09 03:00:00 9.6 6 Sudoeste 23 Oeste 0.6 -- -- 83
2020-03-09 02:00:00 10.1 13 Sudoeste 32 Sudoeste 0 -- -- 82
2020-03-09 01:00:00 9.7 5 Oeste 30 Nordeste 0.6 -- -- 88
2020-03-09 00:00:00 10.5 4 Sur 16 Sur 0 -- -- 83
2020-03-08 23:00:00 10.2 2 Noroeste 13 Norte 0 -- -- 88
2020-03-08 22:00:00 10.6 3 Nordeste 17 Nordeste 1.2 -- -- 90
2020-03-08 21:00:00 11.7 4 Nordeste 17 Nordeste 0 -- -- 77
2020-03-08 20:00:00 11.9 4 Este 11 Sudoeste 0 -- -- 78
2020-03-08 19:00:00 12.1 5 Sudoeste 17 Este 0 -- -- 80
2020-03-08 18:00:00 12.4 5 Noroeste 19 Nordeste 0 -- -- 85
2020-03-08 17:00:00 13.4 6 Norte 9 Norte 0 -- -- 78
2020-03-08 16:00:00 14.4 7 Sudoeste 24 Sudoeste 0 -- -- 75
2020-03-08 15:00:00 15 5 Norte 14 Norte 0 -- -- 67
2020-03-08 14:00:00 15.4 8 Sur 20 Sur 0 -- -- 61
2020-03-08 13:00:00 13.8 0 Calma 4 Sur 0 -- -- 88
2020-03-08 12:00:00 11 2 Noroeste 5 Sur 0 -- -- 91
2020-03-08 11:00:00 8.1 0 Calma 5 Norte 0 -- -- 100
2020-03-08 10:00:00 6 0 Calma 5 Sur 0 -- -- 100
2020-03-08 09:00:00 4.1 0 Calma 5 Norte 0 -- -- 100
2020-03-08 08:00:00 2.8 0 Calma 5 Noroeste 0 -- -- 100
2020-03-08 07:00:00 2.6 0 Calma 5 Nordeste 0 -- -- 100
2020-03-08 06:00:00 3 2 Sudoeste 4 Noroeste 0 -- -- 100
2020-03-08 05:00:00 3.3 3 Sudoeste 7 Norte 0 -- -- 100
2020-03-08 04:00:00 3.5 0 Calma 7 Noroeste 0 -- -- 100
2020-03-08 03:00:00 4.4 2 Este 8 Norte 0 -- -- 99
2020-03-08 02:00:00 5.3 3 Sudeste 12 Este 0 -- -- 97
2020-03-08 01:00:00 5.8 4 Sudeste 12 Este 0 -- -- 96
2020-03-08 00:00:00 6.6 4 Nordeste 11 Nordeste 0 -- -- 98
2020-03-07 23:00:00 7.2 0 Calma 5 Sudeste 0 -- -- 100
2020-03-07 22:00:00 7.9 3 Oeste 8 Norte 0 -- -- 99
2020-03-07 21:00:00 9.1 0 Calma 5 Sudeste 0 -- -- 97
2020-03-07 20:00:00 10 0 Calma 10 Nordeste 0 -- -- 93
2020-03-07 19:00:00 10.3 0 Calma 10 Norte 0 -- -- 91
2020-03-07 18:00:00 10.2 4 Norte 10 Oeste 0 -- -- 95
2020-03-07 17:00:00 10.1 3 Sudoeste 17 Noroeste 1.8 -- -- 96
2020-03-07 16:00:00 10.5 6 Norte 30 Norte 1 -- -- 97
2020-03-07 15:00:00 10.4 4 Noroeste 19 Norte 3.6 -- -- 96
2020-03-07 14:00:00 10.5 4 Norte 18 Noroeste 4 -- -- 98
2020-03-07 13:00:00 10.3 10 Norte 19 Norte 4 -- -- 96
2020-03-07 12:00:00 11.2 7 Norte 23 Noroeste 0 -- -- 90
2020-03-07 11:00:00 10.5 8 Noroeste 22 Noroeste 0.2 -- -- 89
2020-03-07 10:00:00 10.3 10 Noroeste 33 Noroeste 0 -- -- 89
2020-03-07 09:00:00 9.7 9 Noroeste 22 Noroeste 0 -- -- 94
2020-03-07 08:00:00 8.7 6 Noroeste 19 Noroeste 1.2 -- -- 97
2020-03-07 07:00:00 8.6 12 Noroeste 30 Noroeste 0.6 -- -- 93
2020-03-07 06:00:00 9.1 6 Oeste 30 Noroeste 0 -- -- 86
2020-03-07 05:00:00 8.6 11 Norte 26 Norte 0.2 -- -- 85
2020-03-07 04:00:00 7.5 12 Norte 26 Noroeste 2.4 -- -- 94
2020-03-07 03:00:00 7.2 4 Sudoeste 15 Sudoeste 0.2 -- -- 92
2020-03-07 02:00:00 7.2 11 Noroeste 34 Norte 1.2 -- -- 88
2020-03-07 01:00:00 7.6 4 Noroeste 22 Norte 0.6 -- -- 90
2020-03-07 00:00:00 7.8 5 Norte 26 Noroeste 0 -- -- 85
2020-03-06 23:00:00 7.1 6 Este 50 Norte 3 -- -- 91
2020-03-06 22:00:00 7.4 22 Norte 44 Norte 0 -- -- 85
2020-03-06 21:00:00 7.9 9 Norte 33 Norte 0.2 -- -- 81
2020-03-06 20:00:00 7.6 6 Sudeste 28 Norte 0.8 -- -- 88
2020-03-06 19:00:00 7.8 6 Este 35 Norte 0 -- -- 84
2020-03-06 18:00:00 8.1 13 Norte 60 Norte 1.6 -- -- 82
2020-03-06 17:00:00 7.9 10 Noroeste 31 Norte 0.2 -- -- 84
2020-03-06 16:00:00 6.7 8 Nordeste 41 Norte 1.4 -- -- 90
2020-03-06 15:00:00 6 26 Norte 54 Norte 1.4 -- -- 88
2020-03-06 14:00:00 9.9 14 Norte 53 Norte 0.4 -- -- 71
2020-03-06 13:00:00 7.6 8 Norte 33 Norte 0 -- -- 83
2020-03-06 12:00:00 7.1 9 Sudeste 33 Norte 2.4 -- -- 80
2020-03-06 11:00:00 5.8 14 Sudoeste 35 Sudoeste 4.2 -- -- 90
2020-03-06 10:00:00 5.6 15 Norte 40 Norte 4.6 -- -- 89
2020-03-06 09:00:00 5.9 19 Sudoeste 47 Oeste 2 -- -- 88
2020-03-06 08:00:00 6 22 Sudoeste 43 Sudoeste 1.6 -- -- 89
2020-03-06 07:00:00 6.6 15 Sudoeste 41 Sudoeste 2.4 -- -- 86
2020-03-06 06:00:00 8 17 Sudoeste 42 Sudoeste 0.4 -- -- 79
2020-03-06 05:00:00 8.3 6 Noroeste 17 Noroeste 0 -- -- 75
2020-03-06 04:00:00 7.4 5 Norte 26 Oeste 0.2 -- -- 83
2020-03-06 03:00:00 5.9 4 Noroeste 9 Noroeste 0 -- -- 98
2020-03-06 02:00:00 6.4 4 Norte 8 Norte 0 -- -- 97
2020-03-06 01:00:00 7.4 5 Norte 8 Norte 0 -- -- 93
2020-03-06 00:00:00 7.4 5 Norte 9 Noroeste 0 -- -- 96
2020-03-05 23:00:00 7.6 2 Norte 14 Nordeste 1 -- -- 93
2020-03-05 22:00:00 8 12 Norte 26 Norte 1.2 -- -- 91
2020-03-05 21:00:00 8 3 Nordeste 23 Nordeste 3 -- -- 90
2020-03-05 20:00:00 9.2 6 Sur 27 Oeste 0 -- -- 81
2020-03-05 19:00:00 9.3 6 Oeste 31 Sudoeste 3 -- -- 85
2020-03-05 18:00:00 9.7 9 Este 34 Norte 0.2 -- -- 86
2020-03-05 17:00:00 9.9 13 Nordeste 44 Norte 1.4 -- -- 88
2020-03-05 16:00:00 11.4 12 Norte 46 Norte 0.2 -- -- 80
2020-03-05 15:00:00 11.7 8 Este 36 Nordeste 0 -- -- 79
2020-03-05 14:00:00 12.7 6 Nordeste 19 Sudoeste 0 -- -- 76
2020-03-05 13:00:00 12.6 6 Sudoeste 35 Oeste 0 -- -- 82
2020-03-05 12:00:00 10.4 6 Sur 19 Este 2.8 -- -- 96
2020-03-05 11:00:00 10.3 5 Nordeste 16 Nordeste 4.2 -- -- 95
2020-03-05 10:00:00 10.6 8 Nordeste 26 Norte 4.8 -- -- 95
2020-03-05 09:00:00 12.1 9 Norte 75 Sudoeste 2.2 -- -- 88
2020-03-05 08:00:00 17.2 27 Sur 71 Sur 0 -- -- 63
2020-03-05 07:00:00 16.7 35 Sur 93 Sur 0 -- -- 65
2020-03-05 06:00:00 17.2 40 Sur 87 Sur 0 -- -- 65
2020-03-05 05:00:00 17.8 17 Sur 98 Sudeste 0 -- -- 62
2020-03-05 04:00:00 16.6 25 Sur 49 Sudoeste 0 -- -- 67
2020-03-05 03:00:00 16.2 15 Sur 41 Sur 0 -- -- 67
2020-03-05 02:00:00 13.5 8 Nordeste 17 Norte 0 -- -- 83
2020-03-05 01:00:00 11.1 9 Norte 14 Norte 0 -- -- 100
2020-03-05 00:00:00 11.6 4 Norte 15 Nordeste 0 -- -- 98
2020-03-04 23:00:00 12.2 4 Norte 9 Noroeste 0 -- -- 98
2020-03-04 22:00:00 12.5 2 Norte 9 Norte 0 -- -- 98
2020-03-04 21:00:00 13.2 0 Calma 6 Noroeste 0 -- -- 96
2020-03-04 20:00:00 13.5 5 Noroeste 8 Norte 0 -- -- 94
2020-03-04 19:00:00 14.4 7 Norte 12 Norte 0 -- -- 91
2020-03-04 18:00:00 15.3 3 Norte 9 Norte 0 -- -- 86
2020-03-04 17:00:00 16.3 2 Este 5 Sudeste 0 -- -- 76
2020-03-04 16:00:00 16.8 0 Calma 4 Nordeste 0 -- -- 78
2020-03-04 15:00:00 16.3 3 Sudeste 5 Sudeste 0 -- -- 85
2020-03-04 14:00:00 15.2 3 Este 9 Norte 0.2 -- -- 96
2020-03-04 13:00:00 14.6 2 Este 18 Norte 0 -- -- 92
2020-03-04 12:00:00 14.1 6 Norte 19 Norte 0 -- -- 100
2020-03-04 11:00:00 12.3 3 Norte 11 Norte 0.2 -- -- 100
2020-03-04 10:00:00 10.7 3 Noroeste 8 Noroeste 1 -- -- 100
2020-03-04 09:00:00 9.8 3 Norte 8 Noroeste 1.2 -- -- 100
2020-03-04 08:00:00 9.3 2 Norte 7 Noroeste 2 -- -- 100
2020-03-04 07:00:00 8.9 2 Oeste 12 Norte 2.2 -- -- 100
2020-03-04 06:00:00 8.5 0 Calma 10 Norte 1.2 -- -- 100
2020-03-04 05:00:00 8.5 4 Norte 11 Norte 1 -- -- 100
2020-03-04 04:00:00 8.4 3 Norte 8 Norte 0.2 -- -- 98
2020-03-04 03:00:00 8.5 5 Nordeste 10 Este 0 -- -- 98
2020-03-04 02:00:00 8.4 5 Nordeste 10 Nordeste 0 -- -- 100
2020-03-04 01:00:00 8.5 3 Este 5 Este 0 -- -- 100
2020-03-04 00:00:00 8.6 0 Calma -- -- 0.2 -- -- 99
2020-03-03 23:00:00 8.8 0 Calma 4 Oeste 0.4 -- -- 99
2020-03-03 22:00:00 8.9 3 Sudoeste 10 Oeste 0.2 -- -- 98
2020-03-03 21:00:00 9.2 4 Noroeste 22 Noroeste 0.8 -- -- 95
2020-03-03 20:00:00 9.5 5 Oeste 25 Noroeste 1.8 -- -- 95
2020-03-03 19:00:00 10.5 4 Noroeste 29 Noroeste 0 -- -- 84
2020-03-03 18:00:00 10.9 12 Noroeste 47 Noroeste 0 -- -- 84
2020-03-03 17:00:00 12.2 13 Norte 62 Nordeste 0 -- -- 83
2020-03-03 16:00:00 14.1 19 Norte 57 Nordeste 0 -- -- 72
2020-03-03 15:00:00 13.8 16 Nordeste 49 Norte 0 -- -- 77
2020-03-03 14:00:00 14.1 13 Este 48 Sur 0.2 -- -- 78
2020-03-03 13:00:00 14 9 Oeste 34 Sur 1.4 -- -- 79
2020-03-03 12:00:00 15.9 9 Sur 52 Sur 0 -- -- 67
2020-03-03 11:00:00 12 19 Sur 53 Sudoeste 0 -- -- 78
2020-03-03 10:00:00 8.4 7 Norte 36 Sur 0.8 -- -- 88
2020-03-03 09:00:00 6.6 17 Sur 36 Sur 2 -- -- 93
2020-03-03 08:00:00 6.7 15 Sudeste 37 Sur 1.2 -- -- 88
2020-03-03 07:00:00 7.6 11 Sur 26 Sur 0 -- -- 81
2020-03-03 06:00:00 7.9 6 Sudoeste 28 Sudoeste 0 -- -- 76
2020-03-03 05:00:00 7 8 Sur 19 Sur 0 -- -- 77
2020-03-03 04:00:00 6.9 8 Norte 23 Sudoeste 0 -- -- 87
2020-03-03 03:00:00 6.3 5 Norte 10 Norte 0.2 -- -- 94
2020-03-03 02:00:00 6.5 4 Norte 18 Sudoeste 0 -- -- 90
2020-03-03 01:00:00 6.2 5 Norte 17 Oeste 0 -- -- 90
2020-03-03 00:00:00 6.1 5 Sudoeste 19 Oeste 0.4 -- -- 90
2020-03-02 23:00:00 5.6 3 Sur 19 Sudoeste 1 -- -- 95
2020-03-02 22:00:00 6.4 4 Nordeste 27 Sur 1.6 -- -- 90
2020-03-02 21:00:00 6.5 7 Norte 47 Sudoeste 1.6 -- -- 91
2020-03-02 20:00:00 7.7 21 Sudoeste 41 Sudoeste 0 -- -- 78
2020-03-02 19:00:00 7.6 9 Sur 32 Norte 0 -- -- 78
2020-03-02 18:00:00 7.2 6 Norte 31 Sur 1.6 -- -- 85
2020-03-02 17:00:00 8 13 Sudoeste 40 Sudoeste 0 -- -- 81
2020-03-02 16:00:00 6.4 12 Sudoeste 55 Sur 1.6 -- -- 87
2020-03-02 15:00:00 6.8 12 Sur 37 Sudoeste 1 -- -- 90
2020-03-02 14:00:00 6.4 13 Sur 49 Sudoeste 1.6 -- -- 88
2020-03-02 13:00:00 8.6 18 Sudoeste 47 Sudoeste 0 -- -- 76
2020-03-02 12:00:00 9.2 12 Sudoeste 37 Sudoeste 0.4 -- -- 82
2020-03-02 11:00:00 8.5 14 Sur 41 Sudoeste 0.2 -- -- 83
2020-03-02 10:00:00 8.2 10 Sur 39 Sudoeste 0.2 -- -- 83
2020-03-02 09:00:00 8 8 Sudoeste 50 Sur 1.6 -- -- 85
2020-03-02 08:00:00 8.7 8 Sudeste 36 Nordeste 2.6 -- -- 91
2020-03-02 07:00:00 9.8 12 Sudoeste 33 Sudoeste 0.4 -- -- 87
2020-03-02 06:00:00 9.2 9 Sur 52 Sudoeste 4.6 -- -- 91
2020-03-02 05:00:00 12.1 18 Nordeste 58 Norte 6.4 -- -- 87
2020-03-02 04:00:00 14.6 28 Sur 68 Sur 0 -- -- 73
2020-03-02 03:00:00 12.7 22 Sur 44 Sur 0.4 -- -- 80
2020-03-02 02:00:00 11.7 15 Sur 32 Sur 0.4 -- -- 81
2020-03-02 01:00:00 11.7 13 Sur 33 Sur 1 -- -- 80
2020-03-02 00:00:00 10.9 13 Sur 35 Sur 2.6 -- -- 85